UAE28Y EGKK-OMDB

Flight info

Callsign UAE28Y
Flight time N/A
Altitude 39000
Route BOGNA L612 XAMAB UL612 VEULE DCT KOTAP DCT KETEX DCT KOTIS DCT KUKOR DCT UTUVA DCT TITVA DCT NOQAS DCT OTROT DCT RETNO DCT KOLON DCT RAPUR DCT RATAP DCT BTA DCT DOKAR DCT SUNEV DCT TAGEL DCT MASOT/N0486F410 DCT BELIX DCT SALUN N705 MMA P751 DASUM Y234 FYM M872 BDB Y214 RAPMA DCT KUVSO DCT KATIT DCT PEKEM M628 RIGIL G783 ASPED Q308 KIPOK Q568 IMPED
Aircraft A359/H-SABDE2E3GHIJ1J2J3J4J5LM1OP2RVWXY/LB2D1

Departure

Time 2026-04-16 21:12
Airport London Gatwick Airport (EGKK)

Arrival

Time N/A
Airport Dubai International Airport (OMDB)
Time Latitude Longitude Altitude Speed Heading
2026-04-16 19:57 51.15924 -0.17966 211 ft 0 kts 77°
2026-04-16 20:53 51.15920 -0.17997 211 ft 4 kts 78°
2026-04-16 20:53 51.15914 -0.18039 211 ft 4 kts 78°
2026-04-16 20:54 51.15909 -0.18076 215 ft 4 kts 86°
2026-04-16 20:54 51.15914 -0.18107 219 ft 4 kts 156°
2026-04-16 20:54 51.15939 -0.18117 215 ft 2 kts 168°
2026-04-16 20:54 51.15941 -0.18117 216 ft 0 kts 168°
2026-04-16 21:00 51.15939 -0.18116 221 ft 1 kts 168°
2026-04-16 21:00 51.15923 -0.18111 213 ft 4 kts 168°
2026-04-16 21:01 51.15886 -0.18098 214 ft 6 kts 168°
2026-04-16 21:01 51.15838 -0.18082 220 ft 8 kts 168°
2026-04-16 21:01 51.15776 -0.18060 218 ft 10 kts 167°
2026-04-16 21:01 51.15722 -0.18040 218 ft 7 kts 162°
2026-04-16 21:02 51.15699 -0.17977 220 ft 7 kts 92°
2026-04-16 21:02 51.15710 -0.17888 214 ft 9 kts 78°
2026-04-16 21:02 51.15725 -0.17775 213 ft 12 kts 78°
2026-04-16 21:03 51.15751 -0.17544 213 ft 7 kts 102°
2026-04-16 21:03 51.15712 -0.17502 220 ft 8 kts 164°
2026-04-16 21:03 51.15689 -0.17493 218 ft 0 kts 167°
2026-04-16 21:03 51.15672 -0.17486 217 ft 4 kts 167°
2026-04-16 21:04 51.15634 -0.17473 221 ft 7 kts 167°
2026-04-16 21:04 51.15577 -0.17453 219 ft 10 kts 167°
2026-04-16 21:04 51.15505 -0.17428 219 ft 11 kts 168°
2026-04-16 21:04 51.15421 -0.17399 215 ft 13 kts 167°
2026-04-16 21:05 51.15328 -0.17366 216 ft 15 kts 168°
2026-04-16 21:05 51.15257 -0.17329 220 ft 9 kts 150°
2026-04-16 21:05 51.15201 -0.17269 222 ft 10 kts 143°
2026-04-16 21:05 51.15185 -0.17171 218 ft 10 kts 77°
2026-04-16 21:06 51.15203 -0.17049 219 ft 12 kts 77°
2026-04-16 21:06 51.15214 -0.16968 217 ft 0 kts 77°
2026-04-16 21:07 51.15214 -0.16967 214 ft 1 kts 77°
2026-04-16 21:08 51.15216 -0.16956 216 ft 0 kts 77°
2026-04-16 21:10 51.15217 -0.16949 220 ft 3 kts 77°
2026-04-16 21:10 51.15226 -0.16877 221 ft 9 kts 83°
2026-04-16 21:10 51.15194 -0.16809 220 ft 8 kts 158°
2026-04-16 21:10 51.15135 -0.16806 220 ft 9 kts 201°
2026-04-16 21:11 51.15112 -0.16890 221 ft 9 kts 257°
2026-04-16 21:11 51.15088 -0.17054 221 ft 36 kts 257°
2026-04-16 21:11 51.14983 -0.17813 221 ft 102 kts 257°
2026-04-16 21:11 51.14789 -0.19222 220 ft 156 kts 257°
2026-04-16 21:12 51.14552 -0.20913 828 ft 152 kts 255°
2026-04-16 21:12 51.14337 -0.22547 1520 ft 153 kts 256°
2026-04-16 21:12 51.14105 -0.24293 1817 ft 169 kts 255°
2026-04-16 21:12 51.13827 -0.26231 2065 ft 190 kts 254°
2026-04-16 21:13 51.13523 -0.28364 2459 ft 202 kts 255°
2026-04-16 21:13 51.13215 -0.30572 3082 ft 205 kts 255°
2026-04-16 21:13 51.12906 -0.32799 3742 ft 207 kts 255°
2026-04-16 21:13 51.12594 -0.35032 4357 ft 210 kts 255°
2026-04-16 21:14 51.12276 -0.37308 5039 ft 211 kts 255°